Time,TemperatureF,DewpointF,PressureIn,WindDirection,WindDirectionDegrees,WindSpeedMPH,WindSpeedGustMPH,Humidity,HourlyPrecipIn,Conditions,Clouds,dailyrainin,SoftwareType,DateUTC
2013-03-22 00:02:00,11.0,7.0,-100.00,NNW,340,3.0,5.0,79,0.00,,,0.00,,2013-03-22 05:02:00,
2013-03-22 00:12:00,11.0,5.0,-100.00,NNW,340,4.0,4.0,79,0.00,,,0.00,,2013-03-22 05:12:00,
2013-03-22 00:22:00,11.0,5.0,-100.00,NNW,345,3.0,4.0,79,0.00,,,0.00,,2013-03-22 05:22:00,
2013-03-22 00:32:00,11.0,5.0,-100.00,North,0,1.0,3.0,79,0.00,,,0.00,,2013-03-22 05:32:00,
2013-03-22 00:42:00,9.0,5.0,-100.00,NW,310,2.0,3.0,80,0.00,,,0.00,,2013-03-22 05:42:00,
2013-03-22 00:52:00,9.0,5.0,-100.00,NW,315,4.0,6.0,81,0.00,,,0.00,,2013-03-22 05:52:00,
2013-03-22 01:02:00,9.0,5.0,-100.00,NW,320,4.0,4.0,82,0.00,,,0.00,,2013-03-22 06:02:00,
2013-03-22 01:12:00,9.0,5.0,-100.00,NW,320,3.0,6.0,82,0.00,,,0.00,,2013-03-22 06:12:00,
2013-03-22 01:22:00,9.0,5.0,-100.00,NW,305,2.0,4.0,83,0.00,,,0.00,,2013-03-22 06:22:00,
2013-03-22 01:32:00,8.0,5.0,-100.00,NW,315,3.0,6.0,84,0.00,,,0.00,,2013-03-22 06:32:00,
2013-03-22 01:42:00,8.0,5.0,-100.00,WNW,295,4.0,5.0,85,0.00,,,0.00,,2013-03-22 06:42:00,
2013-03-22 01:52:00,8.0,5.0,-100.00,WNW,295,4.0,4.0,86,0.00,,,0.00,,2013-03-22 06:52:00,
2013-03-22 02:02:00,8.0,5.0,-100.00,WNW,285,4.0,4.0,86,0.00,,,0.00,,2013-03-22 07:02:00,
2013-03-22 02:12:00,8.0,5.0,-100.00,WNW,295,3.0,4.0,86,0.00,,,0.00,,2013-03-22 07:12:00,
2013-03-22 02:22:00,7.0,5.0,-100.00,NW,310,3.0,4.0,87,0.00,,,0.00,,2013-03-22 07:22:00,
2013-03-22 02:32:00,8.0,5.0,-100.00,NW,310,4.0,4.0,87,0.00,,,0.00,,2013-03-22 07:32:00,
2013-03-22 02:42:00,7.0,5.0,-100.00,WNW,300,4.0,6.0,87,0.00,,,0.00,,2013-03-22 07:42:00,
2013-03-22 02:52:00,7.0,5.0,-100.00,WNW,300,6.0,7.0,88,0.00,,,0.00,,2013-03-22 07:52:00,
2013-03-22 03:03:00,7.0,3.0,-100.00,WNW,300,6.0,7.0,88,0.00,,,0.00,,2013-03-22 08:03:00,
2013-03-22 03:12:00,6.0,3.0,-100.00,WNW,300,6.0,7.0,88,0.00,,,0.00,,2013-03-22 08:12:00,
2013-03-22 03:22:00,7.0,5.0,-100.00,NW,310,4.0,7.0,88,0.00,,,0.00,,2013-03-22 08:22:00,
2013-03-22 03:32:00,7.0,5.0,-100.00,NW,315,3.0,5.0,88,0.00,,,0.00,,2013-03-22 08:32:00,
2013-03-22 03:42:00,7.0,5.0,-100.00,NW,305,4.0,6.0,88,0.00,,,0.00,,2013-03-22 08:42:00,
2013-03-22 03:52:00,8.0,5.0,-100.00,NW,320,4.0,6.0,88,0.00,,,0.00,,2013-03-22 08:52:00,
2013-03-22 04:02:00,6.0,3.0,-100.00,WNW,300,7.0,7.0,88,0.00,,,0.00,,2013-03-22 09:02:00,
2013-03-22 04:12:00,7.0,5.0,-100.00,NNW,330,4.0,7.0,88,0.00,,,0.00,,2013-03-22 09:12:00,
2013-03-22 04:22:00,7.0,3.0,-100.00,North,5,4.0,6.0,88,0.00,,,0.00,,2013-03-22 09:22:00,
2013-03-22 04:32:00,6.0,3.0,-100.00,North,0,4.0,5.0,88,0.00,,,0.00,,2013-03-22 09:32:00,
2013-03-22 04:42:00,6.0,3.0,-100.00,North,5,4.0,5.0,88,0.00,,,0.00,,2013-03-22 09:42:00,
2013-03-22 04:53:00,6.0,3.0,-100.00,North,0,2.0,3.0,88,0.00,,,0.00,,2013-03-22 09:53:00,
2013-03-22 05:03:00,6.0,3.0,-100.00,NNW,340,2.0,3.0,88,0.00,,,0.00,,2013-03-22 10:03:00,
2013-03-22 05:12:00,6.0,3.0,-100.00,North,355,2.0,4.0,88,0.00,,,0.00,,2013-03-22 10:12:00,
2013-03-22 05:22:00,7.0,5.0,-100.00,North,0,3.0,4.0,88,0.00,,,0.00,,2013-03-22 10:22:00,
2013-03-22 05:32:00,7.0,3.0,-100.00,NNW,335,1.0,3.0,88,0.00,,,0.00,,2013-03-22 10:32:00,
2013-03-22 05:42:00,6.0,3.0,-100.00,NNW,335,2.0,4.0,88,0.00,,,0.00,,2013-03-22 10:42:00,
2013-03-22 05:52:00,7.0,5.0,-100.00,North,350,4.0,5.0,88,0.00,,,0.00,,2013-03-22 10:52:00,
2013-03-22 06:03:00,6.0,3.0,-100.00,North,0,5.0,6.0,88,0.00,,,0.00,,2013-03-22 11:03:00,
2013-03-22 06:12:00,6.0,3.0,-100.00,NNE,20,4.0,6.0,88,0.00,,,0.00,,2013-03-22 11:12:00,
2013-03-22 06:22:00,6.0,3.0,-100.00,NNE,20,3.0,4.0,88,0.00,,,0.00,,2013-03-22 11:22:00,
2013-03-22 06:32:00,6.0,3.0,-100.00,NNE,30,4.0,4.0,88,0.00,,,0.00,,2013-03-22 11:32:00,
2013-03-22 06:42:00,6.0,3.0,-100.00,NE,35,5.0,5.0,88,0.00,,,0.00,,2013-03-22 11:42:00,
2013-03-22 06:52:00,6.0,3.0,-100.00,NE,40,3.0,5.0,88,0.00,,,0.00,,2013-03-22 11:52:00,
2013-03-22 07:02:00,6.0,3.0,-100.00,NNE,30,3.0,6.0,88,0.00,,,0.00,,2013-03-22 12:02:00,
2013-03-22 07:12:00,6.0,3.0,-100.00,NE,40,3.0,4.0,88,0.00,,,0.00,,2013-03-22 12:12:00,
2013-03-22 07:22:00,7.0,5.0,-100.00,NE,40,2.0,4.0,88,0.00,,,0.00,,2013-03-22 12:22:00,
2013-03-22 07:32:00,7.0,5.0,-100.00,NNE,25,2.0,3.0,88,0.00,,,0.00,,2013-03-22 12:32:00,
2013-03-22 07:42:00,8.0,5.0,-100.00,NNE,20,2.0,4.0,88,0.00,,,0.00,,2013-03-22 12:42:00,
2013-03-22 07:52:00,8.0,5.0,-100.00,NNE,25,2.0,4.0,88,0.00,,,0.00,,2013-03-22 12:52:00,
2013-03-22 08:02:00,9.0,5.0,-100.00,NNE,25,1.0,4.0,88,0.00,,,0.00,,2013-03-22 13:02:00,
2013-03-22 08:12:00,9.0,7.0,-100.00,NNE,25,1.0,2.0,87,0.00,,,0.00,,2013-03-22 13:12:00,
2013-03-22 08:22:00,9.0,7.0,-100.00,NE,40,3.0,4.0,87,0.00,,,0.00,,2013-03-22 13:22:00,
2013-03-22 08:32:00,9.0,5.0,-100.00,NE,40,3.0,4.0,86,0.00,,,0.00,,2013-03-22 13:32:00,
2013-03-22 08:42:00,10.0,7.0,-100.00,NE,40,4.0,4.0,86,0.00,,,0.00,,2013-03-22 13:42:00,
2013-03-22 08:52:00,10.0,7.0,-100.00,NE,40,3.0,5.0,84,0.00,,,0.00,,2013-03-22 13:52:00,
2013-03-22 09:02:00,11.0,7.0,-100.00,NE,45,4.0,5.0,82,0.00,,,0.00,,2013-03-22 14:02:00,
2013-03-22 09:12:00,12.0,7.0,-100.00,NE,45,4.0,5.0,82,0.00,,,0.00,,2013-03-22 14:12:00,
2013-03-22 09:22:00,13.0,9.0,-100.00,NE,40,2.0,4.0,79,0.00,,,0.00,,2013-03-22 14:22:00,
2013-03-22 09:32:00,14.0,9.0,-100.00,NE,40,5.0,6.0,78,0.00,,,0.00,,2013-03-22 14:32:00,
2013-03-22 09:42:00,16.0,10.0,-100.00,NE,35,3.0,6.0,76,0.00,,,0.00,,2013-03-22 14:42:00,
2013-03-22 09:52:00,16.0,9.0,-100.00,NE,40,4.0,6.0,73,0.00,,,0.00,,2013-03-22 14:52:00,
2013-03-22 10:02:00,17.0,9.0,-100.00,NE,55,4.0,6.0,70,0.00,,,0.00,,2013-03-22 15:02:00,
2013-03-22 10:12:00,17.0,9.0,-100.00,ENE,65,2.0,6.0,68,0.00,,,0.00,,2013-03-22 15:12:00,
2013-03-22 10:22:00,18.0,9.0,-100.00,SE,125,3.0,6.0,66,0.00,,,0.00,,2013-03-22 15:22:00,
2013-03-22 10:32:00,18.0,9.0,-100.00,ESE,110,4.0,6.0,66,0.00,,,0.00,,2013-03-22 15:32:00,
2013-03-22 10:42:00,19.0,9.0,-100.00,ESE,115,3.0,6.0,64,0.00,,,0.00,,2013-03-22 15:42:00,
2013-03-22 10:52:00,19.0,9.0,-100.00,East,100,4.0,6.0,64,0.00,,,0.00,,2013-03-22 15:52:00,
2013-03-22 11:02:00,19.0,9.0,-100.00,East,100,4.0,6.0,62,0.00,,,0.00,,2013-03-22 16:02:00,
2013-03-22 11:13:00,20.0,9.0,-100.00,ESE,110,4.0,6.0,62,0.00,,,0.00,,2013-03-22 16:13:00,
2013-03-22 11:22:00,21.0,10.0,-100.00,ESE,115,5.0,9.0,61,0.00,,,0.00,,2013-03-22 16:22:00,
2013-03-22 11:32:00,21.0,10.0,-100.00,ESE,120,4.0,6.0,60,0.00,,,0.00,,2013-03-22 16:32:00,
2013-03-22 11:42:00,23.0,10.0,-100.00,ESE,115,3.0,7.0,58,0.00,,,0.00,,2013-03-22 16:42:00,
2013-03-22 11:52:00,23.0,10.0,-100.00,East,95,4.0,4.0,56,0.00,,,0.00,,2013-03-22 16:52:00,
2013-03-22 12:03:00,23.0,10.0,-100.00,ESE,110,4.0,6.0,56,0.00,,,0.00,,2013-03-22 17:03:00,
2013-03-22 12:12:00,24.0,10.0,-100.00,ESE,105,4.0,7.0,56,0.00,,,0.00,,2013-03-22 17:12:00,
2013-03-22 12:23:00,25.0,10.0,-100.00,ESE,115,4.0,6.0,54,0.00,,,0.00,,2013-03-22 17:23:00,
2013-03-22 12:32:00,26.0,12.0,-100.00,ESE,105,4.0,7.0,53,0.00,,,0.00,,2013-03-22 17:32:00,
2013-03-22 12:42:00,26.0,10.0,-100.00,ESE,115,4.0,7.0,51,0.00,,,0.00,,2013-03-22 17:42:00,
2013-03-22 12:52:00,26.0,10.0,-100.00,ESE,115,5.0,6.0,51,0.00,,,0.00,,2013-03-22 17:52:00,
2013-03-22 13:02:00,27.0,10.0,-100.00,ESE,105,6.0,7.0,49,0.00,,,0.00,,2013-03-22 18:02:00,
2013-03-22 13:12:00,27.0,10.0,-100.00,ESE,115,5.0,7.0,49,0.00,,,0.00,,2013-03-22 18:12:00,
2013-03-22 13:22:00,29.0,10.0,-100.00,East,100,5.0,6.0,47,0.00,,,0.00,,2013-03-22 18:22:00,
2013-03-22 13:33:00,29.0,10.0,-100.00,ESE,115,4.0,6.0,46,0.00,,,0.00,,2013-03-22 18:33:00,
2013-03-22 13:42:00,30.0,12.0,-100.00,ESE,110,4.0,8.0,46,0.00,,,0.00,,2013-03-22 18:42:00,
2013-03-22 13:52:00,30.0,10.0,-100.00,ESE,110,5.0,7.0,44,0.00,,,0.00,,2013-03-22 18:52:00,
2013-03-22 14:02:00,31.0,12.0,-100.00,South,185,4.0,6.0,44,0.00,,,0.00,,2013-03-22 19:02:00,
2013-03-22 14:12:00,32.0,12.0,-100.00,South,190,1.0,6.0,42,0.00,,,0.00,,2013-03-22 19:12:00,
2013-03-22 14:22:00,32.0,12.0,-100.00,South,185,5.0,6.0,42,0.00,,,0.00,,2013-03-22 19:22:00,
2013-03-22 14:32:00,32.0,12.0,-100.00,South,190,4.0,6.0,42,0.00,,,0.00,,2013-03-22 19:32:00,
2013-03-22 14:42:00,30.0,10.0,-100.00,WSW,250,4.0,6.0,42,0.00,,,0.00,,2013-03-22 19:42:00,
2013-03-22 14:52:00,32.0,10.0,-100.00,South,180,1.0,6.0,41,0.00,,,0.00,,2013-03-22 19:52:00,
2013-03-22 15:02:00,32.0,12.0,-100.00,South,190,4.0,6.0,41,0.00,,,0.00,,2013-03-22 20:02:00,
2013-03-22 15:12:00,33.0,12.0,-100.00,South,190,3.0,6.0,41,0.00,,,0.00,,2013-03-22 20:12:00,
2013-03-22 15:22:00,32.0,12.0,-100.00,South,170,2.0,6.0,42,0.00,,,0.00,,2013-03-22 20:22:00,
2013-03-22 15:32:00,31.0,10.0,-100.00,SW,220,3.0,5.0,42,0.00,,,0.00,,2013-03-22 20:32:00,
2013-03-22 15:42:00,31.0,10.0,-100.00,SW,220,4.0,5.0,42,0.00,,,0.00,,2013-03-22 20:42:00,
2013-03-22 15:52:00,31.0,12.0,-100.00,SSW,200,3.0,6.0,42,0.00,,,0.00,,2013-03-22 20:52:00,
2013-03-22 16:03:00,31.0,10.0,-100.00,SSW,195,4.0,6.0,43,0.00,,,0.00,,2013-03-22 21:03:00,
2013-03-22 16:12:00,30.0,10.0,-100.00,SSW,195,4.0,7.0,44,0.00,,,0.00,,2013-03-22 21:12:00,
2013-03-22 16:22:00,30.0,10.0,-100.00,SW,215,2.0,6.0,43,0.00,,,0.00,,2013-03-22 21:22:00,
2013-03-22 16:32:00,30.0,10.0,-100.00,SW,235,2.0,6.0,44,0.00,,,0.00,,2013-03-22 21:32:00,
2013-03-22 16:42:00,30.0,10.0,-100.00,SSW,200,3.0,4.0,44,0.00,,,0.00,,2013-03-22 21:42:00,
2013-03-22 16:52:00,30.0,10.0,-100.00,South,185,3.0,5.0,44,0.00,,,0.00,,2013-03-22 21:52:00,
2013-03-22 17:03:00,29.0,10.0,-100.00,SW,230,5.0,6.0,44,0.00,,,0.00,,2013-03-22 22:03:00,
2013-03-22 17:12:00,29.0,10.0,-100.00,SW,220,4.0,6.0,44,0.00,,,0.00,,2013-03-22 22:12:00,
2013-03-22 17:23:00,29.0,10.0,-100.00,SW,220,5.0,7.0,44,0.00,,,0.00,,2013-03-22 22:23:00,
2013-03-22 17:32:00,29.0,10.0,-100.00,SW,230,5.0,7.0,44,0.00,,,0.00,,2013-03-22 22:32:00,
2013-03-22 17:42:00,28.0,10.0,-100.00,West,270,6.0,8.0,46,0.00,,,0.00,,2013-03-22 22:42:00,
2013-03-22 17:52:00,27.0,10.0,-100.00,WSW,255,6.0,9.0,50,0.00,,,0.00,,2013-03-22 22:52:00,
2013-03-22 18:02:00,27.0,12.0,-100.00,West,265,4.0,7.0,52,0.00,,,0.00,,2013-03-22 23:02:00,
2013-03-22 18:12:00,27.0,12.0,-100.00,NW,305,5.0,7.0,54,0.00,,,0.00,,2013-03-22 23:12:00,
2013-03-22 18:22:00,26.0,12.0,-100.00,NNW,335,6.0,9.0,56,0.00,,,0.00,,2013-03-22 23:22:00,
2013-03-22 18:32:00,25.0,12.0,-100.00,NNW,335,7.0,10.0,59,0.00,,,0.00,,2013-03-22 23:32:00,
2013-03-22 18:42:00,25.0,14.0,-100.00,NW,325,6.0,9.0,61,0.00,,,0.00,,2013-03-22 23:42:00,
2013-03-22 18:52:00,24.0,14.0,-100.00,NNW,335,7.0,8.0,62,0.00,,,0.00,,2013-03-22 23:52:00,
2013-03-22 19:02:00,24.0,14.0,-100.00,NNW,330,6.0,8.0,62,0.00,,,0.00,,2013-03-23 00:02:00,
2013-03-22 19:12:00,24.0,12.0,-100.00,NNW,340,6.0,8.0,62,0.00,,,0.00,,2013-03-23 00:12:00,
2013-03-22 19:23:00,24.0,14.0,-100.00,NNW,335,6.0,9.0,64,0.00,,,0.00,,2013-03-23 00:23:00,
2013-03-22 19:32:00,23.0,12.0,-100.00,NNW,345,5.0,8.0,64,0.00,,,0.00,,2013-03-23 00:32:00,
2013-03-22 19:42:00,23.0,12.0,-100.00,NNW,340,5.0,7.0,64,0.00,,,0.00,,2013-03-23 00:42:00,
2013-03-22 19:52:00,22.0,12.0,-100.00,NNW,345,5.0,7.0,64,0.00,,,0.00,,2013-03-23 00:52:00,
2013-03-22 20:03:00,22.0,12.0,-100.00,NNW,340,6.0,9.0,64,0.00,,,0.00,,2013-03-23 01:03:00,
2013-03-22 20:12:00,22.0,12.0,-100.00,NNW,335,4.0,9.0,64,0.00,,,0.00,,2013-03-23 01:12:00,
2013-03-22 20:22:00,22.0,12.0,-100.00,NW,325,5.0,7.0,64,0.00,,,0.00,,2013-03-23 01:22:00,
2013-03-22 20:32:00,22.0,12.0,-100.00,NW,315,6.0,7.0,63,0.00,,,0.00,,2013-03-23 01:32:00,
2013-03-22 20:42:00,21.0,12.0,-100.00,WNW,290,4.0,6.0,65,0.00,,,0.00,,2013-03-23 01:42:00,
2013-03-22 20:52:00,21.0,12.0,-100.00,NW,320,2.0,4.0,66,0.00,,,0.00,,2013-03-23 01:52:00,
2013-03-22 21:02:00,21.0,12.0,-100.00,NW,320,2.0,6.0,65,0.00,,,0.00,,2013-03-23 02:02:00,
2013-03-22 21:12:00,21.0,12.0,-100.00,NW,325,4.0,6.0,66,0.00,,,0.00,,2013-03-23 02:12:00,
2013-03-22 21:22:00,21.0,10.0,-100.00,NNW,335,3.0,5.0,65,0.00,,,0.00,,2013-03-23 02:22:00,
2013-03-22 21:32:00,21.0,10.0,-100.00,NNW,340,4.0,6.0,65,0.00,,,0.00,,2013-03-23 02:32:00,
2013-03-22 21:42:00,20.0,10.0,-100.00,NNW,335,4.0,5.0,65,0.00,,,0.00,,2013-03-23 02:42:00,
2013-03-22 21:52:00,21.0,10.0,-100.00,NW,320,4.0,6.0,65,0.00,,,0.00,,2013-03-23 02:52:00,
2013-03-22 22:02:00,21.0,10.0,-100.00,NW,325,4.0,6.0,64,0.00,,,0.00,,2013-03-23 03:02:00,
2013-03-22 22:12:00,20.0,10.0,-100.00,NNW,335,5.0,6.0,64,0.00,,,0.00,,2013-03-23 03:12:00,
2013-03-22 22:22:00,20.0,10.0,-100.00,North,0,4.0,6.0,65,0.00,,,0.00,,2013-03-23 03:22:00,
2013-03-22 22:33:00,20.0,10.0,-100.00,NW,315,4.0,6.0,65,0.00,,,0.00,,2013-03-23 03:33:00,
2013-03-22 22:43:00,20.0,10.0,-100.00,NNW,330,5.0,6.0,65,0.00,,,0.00,,2013-03-23 03:43:00,
2013-03-22 22:53:00,20.0,10.0,-100.00,NNW,330,6.0,6.0,64,0.00,,,0.00,,2013-03-23 03:53:00,
2013-03-22 23:02:00,20.0,10.0,-100.00,North,355,3.0,6.0,65,0.00,,,0.00,,2013-03-23 04:02:00,
2013-03-22 23:12:00,19.0,10.0,-100.00,North,5,4.0,6.0,65,0.00,,,0.00,,2013-03-23 04:12:00,
2013-03-22 23:23:00,19.0,10.0,-100.00,North,0,5.0,6.0,66,0.00,,,0.00,,2013-03-23 04:23:00,
2013-03-22 23:32:00,20.0,10.0,-100.00,North,0,5.0,6.0,66,0.00,,,0.00,,2013-03-23 04:32:00,
2013-03-22 23:43:00,20.0,10.0,-100.00,North,0,4.0,6.0,65,0.00,,,0.00,,2013-03-23 04:43:00,
2013-03-22 23:53:00,20.0,10.0,-100.00,NNW,335,5.0,6.0,65,0.00,,,0.00,,2013-03-23 04:53:00,